Location: Petruro
(41.0333°N, 14.7833°E)
Time: 09:59:35
(UTC+00:00)

X-37B - Pass Details

Date: 20 June 2021
Orbit: 383 x 392 km, 45.0° (Epoch: 01 July)

Event Time Altitude Azimuth Distance (km) Brightness Sun altitude
Exits shadow 00:28:43 35° 342° (NNW) 636 2.0 -22.5°
Maximum altitude 00:29:07 37° 1° (N) 613 2.0 -22.5°
Drops below altitude 10° 00:32:06 10° 72° (ENE) 1,407 3.9 -22.3°
Sets 00:34:15 0° 81° (E) 2,262 4.9 -22.1°
